Tracking 25710 objects as of 4-Jul-2022
HD Live streaming from Space Station
objects crossing your sky now

SL-12 R/B(2)

Track SL-12 R/B(2) now!


NORAD ID: 17872
Int'l Code: 1976-092F
Perigee: 35,713.6 km
Apogee: 35,882.0 km
Inclination: 7.1 °
Period: 1,436.3 minutes
Semi major axis: 42168 km
RCS: 1.5849 m2 (large)
Launch date: September 11, 1976
Source: Commonwealth of Independent States (former USSR) (CIS)
Launch site: TYURATAM MISSILE AND SPACE COMPLEX (TTMTR)

Note: This is a ROCKET BODY
aabbcc
Your satellite tracking list
Your tracking list is empty




NASA's NSSDC Master Catalog

Two Line Element Set (TLE):
1 17872U 76092F   22184.85952311  .00000107  00000-0  00000-0 0  9998
2 17872   7.1499 290.5773 0019964 157.7937 196.4218  1.00257267104431
Source of the keplerian elements: AFSPC